Location: *
(42.3377°N, 71.0868°W)
Time: 02:56:57
(UTC+00:00)

Aureole 1 Rocket - Pass Details

Date: 09 April 2020
Orbit: 379 x 1379 km, 73.9° (Epoch: 27 May)

Event Time Altitude Azimuth Distance (km) Brightness Sun altitude
Rises 23:39:22 0° 184° (S) 4,254 7.2 -4.3°
Reaches altitude 10° 23:42:26 10° 181° (S) 3,188 6.5 -4.9°
Maximum altitude 23:49:47 56° 106° (ESE) 1,236 4.3 -6.2°
Drops below altitude 10° 23:55:37 10° 30° (NNE) 2,541 6.1 -7.2°
Sets 23:57:50 0° 26° (NNE) 3,339 6.7 -7.6°
